Regional Weather Roundup
Issued by NWS

Home | Current Version | Previous Version | Graphics & Text | Print | Product List | Glossary On
Versions: 1 2 3 4 5 6 7 8 9 10 11 12 13 14 15 16 17 18 19 20 21 22 23 24 25 26 27 28 29 30 31 32 33 34 35 36 37 38 39 40 41 42 43 44 45 46 47 48 49 50
000
ASUS43 KFSD 010902
RWRSD

WEATHER ROUNDUP FOR SOUTH DAKOTA
NATIONAL WEATHER SERVICE SIOUX FALLS SD
400 AM CDT FRI AUG 01 2014

NOTE: "FAIR" INDICATES FEW OR NO CLOUDS BELOW 12,000 FEET WITH NO
SIGNIFICANT WEATHER AND/OR OBSTRUCTIONS TO VISIBILITY.


SDZ001>005-009-010-012>017-011000-
NORTHWEST AND NORTH CENTRAL SOUTH DAKOTA

CITY           SKY/WX    TMP DP  RH WIND       PRES   REMARKS
BUFFALO          N/A     63  47  55 NE5       30.01S
FAITH            N/A     60  54  80 S14       30.05F
MOBRIDGE       PTCLDY    62  58  86 SE6       30.04S
$$

SDZ012>016-024>037-041>051-057-063-072>074-011000-
SOUTHWEST AND SOUTH CENTRAL SOUTH DAKOTA

CITY           SKY/WX    TMP DP  RH WIND       PRES   REMARKS
RAPID CTY ARPT CLEAR     58  51  78 E3        30.11S
PIERRE         CLEAR     65  58  78 SE7       30.04S
CUSTER         PTCLDY    51  45  79 SW5       30.26F
ELLSWORTH AFB  CLEAR     64  50  61 S5        30.10F
PHILIP         CLEAR     58  50  75 CALM      30.05S
PINE RIDGE     CLEAR     53  50  89 W3        30.14R
WINNER         FAIR      65  61  87 S6        30.08R
$$

SDZ004>011-016>023-039-040-011000-
NORTHEAST SOUTH DAKOTA

CITY           SKY/WX    TMP DP  RH WIND       PRES   REMARKS
ABERDEEN       CLEAR     53  53 100 CALM      30.06S
WATERTOWN      CLEAR     56  53  90 CALM      30.07S
SISSETON         N/A     60  58  92 W3        30.03S
$$

SDZ017-020-022-023-036>040-048>070-011000-
SOUTHEAST SOUTH DAKOTA

CITY           SKY/WX    TMP DP  RH WIND       PRES   REMARKS
SIOUX FALLS    CLEAR     57  56  96 CALM      30.07S
HURON          CLEAR     57  54  89 CALM      30.06R
CHAMBERLAIN    PTCLDY    59  56  88 CALM      30.06S
MITCHELL       CLEAR     59  57  93 CALM      30.07R
YANKTON        CLEAR     57  55  94 CALM      30.07S
$$

ABBREVIATIONS USED IN REMARKS
   TC - TEMPERATURE IN CELSIUS
  WCI - WIND CHILL INDEX
   HX - HEAT INDEX
  VSB - VISIBILITY




USA.gov is the U.S. government's official web portal to all federal, state and local government web resources and services.